Location: Jackson Park
(37.2862°N, 79.9123°W)
Time: 23:03:40
(UTC+00:00)

Transit 4A - Pass Details

Date: 15 May 2026
Orbit: 861 x 980 km, 66.8° (Epoch: 5 June)

Event Time Altitude Azimuth Distance (km) Brightness Sun altitude
Rises 22:54:11 0° 326° (NW) 3,687 11.8 15.6°
Reaches altitude 10° 22:56:50 10° 322° (NW) 2,735 11.3 15.1°
Maximum altitude 23:02:58 49° 249° (WSW) 1,230 9.4 13.9°
Drops below altitude 10° 23:09:00 10° 176° (S) 2,683 10.2 12.8°
Sets 23:11:35 0° 171° (S) 3,610 10.7 12.3°
